Regional Weather Roundup
Issued by NWS Sioux Falls, SD

Home | Current Version | Previous Version | Text Only | Print | Product List | Glossary On
Versions: 1 2 3 4 5 6 7 8 9 10 11 12 13 14 15 16 17 18 19 20 21 22 23 24 25 26 27 28 29 30 31 32 33 34 35 36 37 38 39 40 41 42 43 44 45 46 47 48 49 50
000
ASUS43 KFSD 061710
RWRFSD

WEATHER ROUNDUP FOR SE SOUTH DAKOTA/SW MINNESOTA/NW IOWA
NATIONAL WEATHER SERVICE SIOUX FALLS SD
1100 AM CST FRI MAR 06 2015

NOTE: "FAIR" INDICATES FEW OR NO CLOUDS BELOW 12,000 FEET WITH NO
SIGNIFICANT WEATHER AND OR OBSTRUCTIONS TO VISIBILITY.


SDZ038>040-050-052>070-061800-
SOUTHEAST SOUTH DAKOTA

CITY           SKY/WX    TMP DP  RH WIND       PRES   REMARKS
CHAMBERLAIN    SUNNY     39  21  48 W7        30.15R
HURON          SUNNY     33  19  56 N9        30.14S WCI  25
MADISON        FAIR      34  23  64 NW13      30.10R WCI  25
MITCHELL       SUNNY     42  20  41 N12       30.14R
SIOUX FALLS    MOSUNNY   40  21  46 W13       30.11S
WINNER         FAIR      47  21  35 W10       30.16S
YANKTON        SUNNY     48  21  34 W13G18    30.14S
$$

MNZ071-072-080-081-089-090-097-098-061800-
SOUTHWEST MINNESOTA

CITY           SKY/WX    TMP DP  RH WIND       PRES   REMARKS
FAIRMONT       SUNNY     37  21  52 W13       30.07S
JACKSON        SUNNY     36  21  55 W7        30.08S
LUVERNE        SUNNY     36  21  55 NW8       30.11S
MARSHALL       SUNNY     34  18  51 NW17      30.11S WCI  23
MONTEVIDEO     SUNNY     30  19  64 N14       30.11S WCI  20
PIPESTONE      SUNNY     32  19  59 NW9       30.07S WCI  24
REDWOOD FALLS  SUNNY     33  18  53 NW15      30.08R WCI  23
TRACY          SUNNY     36  22  57 NW15      30.09R
WINDOM         SUNNY     39  23  52 W14       30.06F
WORTHINGTON    SUNNY     36  21  55 W13       30.10S
$$

IAZ001>003-012>014-020>022-031-032-NEZ013-014-SDZ071-061800-
NORTHWEST IOWA

CITY           SKY/WX    TMP DP  RH WIND       PRES   REMARKS
CHEROKEE       SUNNY     39  21  48 W7        30.14S
DENISON        SUNNY     37  19  48 SW10      30.16S
ESTHERVILLE    SUNNY     35  20  54 W12       30.08F WCI  27
LE MARS        SUNNY     45  21  39 SW8       30.13F
ORANGE CITY    SUNNY     45  18  33 SW6       30.11S
SHELDON        SUNNY     45  19  36 W9        30.09F
SIOUX CITY     SUNNY     48  19  31 MISG      30.15F
SPENCER        SUNNY     44  21  40 W13       30.10F
STORM LAKE     SUNNY     41  21  45 W15       30.13S
$$

ABBREVIATIONS USED IN REMARKS
   TC - TEMPERATURE IN CELSIUS
  WCI - WIND CHILL INDEX
   HX - HEAT INDEX
  VSB - VISIBILITY



USA.gov is the U.S. government's official web portal to all federal, state and local government web resources and services.